Time,TemperatureF,DewpointF,PressureIn,WindDirection,WindDirectionDegrees,WindSpeedMPH,WindSpeedGustMPH,Humidity,HourlyPrecipIn,Conditions,Clouds,dailyrainin,SoftwareType,DateUTC
2013-01-23 00:01:00,54.4,54.0,29.77,WSW,247,3.0,-999.0,100,-99.99,,,0.00,weatherlink.com 1.10,2013-01-22 22:01:00,
2013-01-23 00:16:00,54.4,54.0,29.76,SW,222,4.0,-999.0,100,-99.99,,,0.00,weatherlink.com 1.10,2013-01-22 22:16:00,
2013-01-23 00:46:00,54.2,54.0,29.76,South,189,7.0,-999.0,100,-99.99,,,0.00,weatherlink.com 1.10,2013-01-22 22:46:00,
2013-01-23 01:01:00,54.1,54.0,29.76,WSW,246,6.0,-999.0,100,-99.99,,,0.00,weatherlink.com 1.10,2013-01-22 23:01:00,
2013-01-23 01:16:00,53.9,54.0,29.76,SW,215,6.0,-999.0,100,-99.99,,,0.00,weatherlink.com 1.10,2013-01-22 23:16:00,
2013-01-23 01:31:00,54.2,54.0,29.76,SW,215,5.0,-999.0,100,-99.99,,,0.00,weatherlink.com 1.10,2013-01-22 23:31:00,
2013-01-23 01:46:00,54.8,55.0,29.76,SW,215,18.0,-999.0,100,-99.99,,,0.00,weatherlink.com 1.10,2013-01-22 23:46:00,
2013-01-23 02:01:00,55.1,55.0,29.77,WSW,239,6.0,-999.0,100,-99.99,,,0.00,weatherlink.com 1.10,2013-01-23 00:01:00,
2013-01-23 02:16:00,55.3,55.0,29.77,WSW,240,4.0,-999.0,100,-99.99,,,0.00,weatherlink.com 1.10,2013-01-23 00:16:00,
2013-01-23 02:31:00,55.3,55.0,29.77,WSW,247,6.0,-999.0,100,-99.99,,,0.00,weatherlink.com 1.10,2013-01-23 00:31:00,
2013-01-23 02:47:00,54.8,55.0,29.77,WSW,247,3.0,-999.0,100,-99.99,,,0.00,weatherlink.com 1.10,2013-01-23 00:47:00,
2013-01-23 03:01:00,54.4,54.0,29.77,SW,224,11.0,-999.0,100,-99.99,,,0.00,weatherlink.com 1.10,2013-01-23 01:01:00,
2013-01-23 03:17:00,54.4,54.0,29.77,SSW,199,5.0,-999.0,100,-99.99,,,0.00,weatherlink.com 1.10,2013-01-23 01:17:00,
2013-01-23 03:32:00,54.2,54.0,29.76,SW,215,14.0,-999.0,100,-99.99,,,0.00,weatherlink.com 1.10,2013-01-23 01:32:00,
2013-01-23 03:47:00,54.2,54.0,29.76,SSW,209,5.0,-999.0,100,-99.99,,,0.00,weatherlink.com 1.10,2013-01-23 01:47:00,
2013-01-23 04:02:00,54.2,54.0,29.76,SW,220,6.0,-999.0,100,-99.99,,,0.00,weatherlink.com 1.10,2013-01-23 02:02:00,
2013-01-23 04:16:00,54.2,54.0,29.75,SW,215,3.0,-999.0,100,-99.99,,,0.00,weatherlink.com 1.10,2013-01-23 02:16:00,
2013-01-23 04:32:00,54.1,54.0,29.75,WNW,294,2.0,-999.0,100,-99.99,,,0.00,weatherlink.com 1.10,2013-01-23 02:32:00,
2013-01-23 04:47:00,53.9,54.0,29.75,SW,216,3.0,-999.0,100,-99.99,,,0.00,weatherlink.com 1.10,2013-01-23 02:47:00,
2013-01-23 05:02:00,54.1,54.0,29.75,SSW,210,5.0,-999.0,100,-99.99,,,0.00,weatherlink.com 1.10,2013-01-23 03:02:00,
2013-01-23 05:17:00,54.2,54.0,29.75,SSE,165,2.0,-999.0,100,-99.99,,,0.00,weatherlink.com 1.10,2013-01-23 03:17:00,
2013-01-23 05:32:00,54.2,54.0,29.75,SW,233,7.0,-999.0,100,-99.99,,,0.00,weatherlink.com 1.10,2013-01-23 03:32:00,
2013-01-23 05:47:00,53.9,54.0,29.75,SSW,202,5.0,-999.0,100,-99.99,,,0.00,weatherlink.com 1.10,2013-01-23 03:47:00,
2013-01-23 06:02:00,53.8,54.0,29.75,SW,224,0.0,-999.0,100,-99.99,,,0.00,weatherlink.com 1.10,2013-01-23 04:02:00,
2013-01-23 06:17:00,53.6,54.0,29.75,SW,216,7.0,-999.0,100,-99.99,,,0.01,weatherlink.com 1.10,2013-01-23 04:17:00,
2013-01-23 06:32:00,53.9,54.0,29.75,SSW,195,3.0,-999.0,100,-99.99,,,0.01,weatherlink.com 1.10,2013-01-23 04:32:00,
2013-01-23 06:47:00,53.9,54.0,29.75,South,179,5.0,-999.0,100,-99.99,,,0.01,weatherlink.com 1.10,2013-01-23 04:47:00,
2013-01-23 07:17:00,54.1,54.0,29.76,SSW,206,5.0,-999.0,100,-99.99,,,0.01,weatherlink.com 1.10,2013-01-23 05:17:00,
2013-01-23 07:32:00,54.5,55.0,29.76,SSW,203,2.0,-999.0,100,-99.99,,,0.01,weatherlink.com 1.10,2013-01-23 05:32:00,
2013-01-23 07:47:00,54.8,55.0,29.76,SSW,209,7.0,-999.0,100,-99.99,,,0.01,weatherlink.com 1.10,2013-01-23 05:47:00,
2013-01-23 08:02:00,53.8,54.0,29.77,SW,217,11.0,-999.0,100,-99.99,,,0.02,weatherlink.com 1.10,2013-01-23 06:02:00,
2013-01-23 08:17:00,52.5,53.0,29.77,SW,230,6.0,-999.0,100,-99.99,,,0.03,weatherlink.com 1.10,2013-01-23 06:17:00,
2013-01-23 08:32:00,52.0,49.0,29.78,South,188,1.0,-999.0,89,-99.99,,,0.06,weatherlink.com 1.10,2013-01-23 06:32:00,
2013-01-23 08:47:00,52.0,49.0,29.78,SW,232,6.0,-999.0,90,-99.99,,,0.06,weatherlink.com 1.10,2013-01-23 06:47:00,
2013-01-23 09:02:00,52.5,50.0,29.79,WSW,244,3.0,-999.0,91,-99.99,,,0.07,weatherlink.com 1.10,2013-01-23 07:02:00,
2013-01-23 09:17:00,52.6,50.0,29.79,SW,222,8.0,-999.0,90,-99.99,,,0.07,weatherlink.com 1.10,2013-01-23 07:17:00,
2013-01-23 09:32:00,52.5,50.0,29.79,SSW,210,4.0,-999.0,91,-99.99,,,0.07,weatherlink.com 1.10,2013-01-23 07:32:00,
2013-01-23 09:47:00,52.2,50.0,29.79,SW,224,2.0,-999.0,92,-99.99,,,0.07,weatherlink.com 1.10,2013-01-23 07:47:00,
2013-01-23 10:03:00,52.5,51.0,29.79,SSE,154,6.0,-999.0,93,-99.99,,,0.07,weatherlink.com 1.10,2013-01-23 08:03:00,
2013-01-23 10:18:00,52.5,51.0,29.79,SSE,157,13.0,-999.0,94,-99.99,,,0.07,weatherlink.com 1.10,2013-01-23 08:18:00,
2013-01-23 10:33:00,52.6,51.0,29.80,SSW,213,14.0,-999.0,94,-99.99,,,0.07,weatherlink.com 1.10,2013-01-23 08:33:00,
2013-01-23 10:48:00,52.9,51.0,29.80,South,191,10.0,-999.0,93,-99.99,,,0.07,weatherlink.com 1.10,2013-01-23 08:48:00,
2013-01-23 11:03:00,53.6,51.0,29.80,SSW,199,2.0,-999.0,91,-99.99,,,0.07,weatherlink.com 1.10,2013-01-23 09:03:00,
2013-01-23 11:18:00,53.6,51.0,29.80,NW,305,1.0,-999.0,90,-99.99,,,0.07,weatherlink.com 1.10,2013-01-23 09:18:00,
2013-01-23 11:33:00,53.5,50.0,29.79,SW,219,6.0,-999.0,87,-99.99,,,0.07,weatherlink.com 1.10,2013-01-23 09:33:00,
2013-01-23 11:48:00,53.1,49.0,29.79,South,171,11.0,-999.0,86,-99.99,,,0.07,weatherlink.com 1.10,2013-01-23 09:48:00,
2013-01-23 12:03:00,53.6,50.0,29.79,SW,220,5.0,-999.0,87,-99.99,,,0.07,weatherlink.com 1.10,2013-01-23 10:03:00,
2013-01-23 12:18:00,54.4,50.0,29.79,SSW,195,3.0,-999.0,85,-99.99,,,0.07,weatherlink.com 1.10,2013-01-23 10:18:00,
2013-01-23 12:33:00,54.8,50.0,29.80,SW,219,10.0,-999.0,83,-99.99,,,0.07,weatherlink.com 1.10,2013-01-23 10:33:00,
2013-01-23 12:48:00,54.8,50.0,29.79,SW,234,3.0,-999.0,84,-99.99,,,0.07,weatherlink.com 1.10,2013-01-23 10:48:00,
2013-01-23 13:03:00,55.1,50.0,29.79,SW,217,13.0,-999.0,84,-99.99,,,0.07,weatherlink.com 1.10,2013-01-23 11:03:00,
2013-01-23 13:19:00,55.4,50.0,29.79,SW,220,5.0,-999.0,83,-99.99,,,0.07,weatherlink.com 1.10,2013-01-23 11:19:00,
2013-01-23 13:34:00,56.0,51.0,29.80,SW,223,5.0,-999.0,82,-99.99,,,0.07,weatherlink.com 1.10,2013-01-23 11:34:00,
2013-01-23 13:49:00,56.3,51.0,29.80,SW,219,5.0,-999.0,81,-99.99,,,0.07,weatherlink.com 1.10,2013-01-23 11:49:00,
2013-01-23 14:04:00,56.3,50.0,29.80,SSW,196,1.0,-999.0,80,-99.99,,,0.07,weatherlink.com 1.10,2013-01-23 12:04:00,
2013-01-23 14:19:00,56.3,50.0,29.80,SW,215,6.0,-999.0,80,-99.99,,,0.07,weatherlink.com 1.10,2013-01-23 12:19:00,
2013-01-23 14:34:00,56.3,50.0,29.81,WSW,239,3.0,-999.0,80,-99.99,,,0.07,weatherlink.com 1.10,2013-01-23 12:34:00,
2013-01-23 14:49:00,56.2,50.0,29.81,SSW,212,6.0,-999.0,80,-99.99,,,0.07,weatherlink.com 1.10,2013-01-23 12:49:00,
2013-01-23 15:04:00,56.3,50.0,29.82,SW,234,5.0,-999.0,80,-99.99,,,0.07,weatherlink.com 1.10,2013-01-23 13:04:00,
2013-01-23 15:19:00,56.5,50.0,29.83,SSW,198,5.0,-999.0,80,-99.99,,,0.07,weatherlink.com 1.10,2013-01-23 13:19:00,
2013-01-23 15:34:00,56.5,50.0,29.83,NW,308,1.0,-999.0,80,-99.99,,,0.07,weatherlink.com 1.10,2013-01-23 13:34:00,
2013-01-23 15:49:00,56.3,49.0,29.83,South,186,5.0,-999.0,76,-99.99,,,0.07,weatherlink.com 1.10,2013-01-23 13:49:00,
2013-01-23 16:04:00,56.5,47.0,29.84,SW,230,8.0,-999.0,71,-99.99,,,0.07,weatherlink.com 1.10,2013-01-23 14:04:00,
2013-01-23 16:19:00,56.2,46.0,29.85,SW,224,10.0,-999.0,69,-99.99,,,0.07,weatherlink.com 1.10,2013-01-23 14:19:00,
2013-01-23 16:34:00,56.0,46.0,29.85,SSW,209,6.0,-999.0,69,-99.99,,,0.07,weatherlink.com 1.10,2013-01-23 14:34:00,
2013-01-23 16:50:00,55.6,46.0,29.85,South,174,0.0,-999.0,71,-99.99,,,0.07,weatherlink.com 1.10,2013-01-23 14:50:00,
2013-01-23 17:05:00,55.3,46.0,29.86,SSW,209,3.0,-999.0,71,-99.99,,,0.07,weatherlink.com 1.10,2013-01-23 15:05:00,
2013-01-23 17:20:00,55.0,46.0,29.86,SW,216,5.0,-999.0,72,-99.99,,,0.07,weatherlink.com 1.10,2013-01-23 15:20:00,
2013-01-23 17:35:00,54.4,46.0,29.86,SSW,202,5.0,-999.0,74,-99.99,,,0.07,weatherlink.com 1.10,2013-01-23 15:35:00,
2013-01-23 17:50:00,53.9,47.0,29.87,SSW,193,5.0,-999.0,76,-99.99,,,0.07,weatherlink.com 1.10,2013-01-23 15:50:00,
2013-01-23 18:05:00,53.6,46.0,29.88,SW,232,7.0,-999.0,75,-99.99,,,0.07,weatherlink.com 1.10,2013-01-23 16:05:00,
2013-01-23 18:20:00,53.5,45.0,29.88,NW,325,3.0,-999.0,74,-99.99,,,0.07,weatherlink.com 1.10,2013-01-23 16:20:00,
2013-01-23 18:35:00,53.5,45.0,29.89,WSW,241,4.0,-999.0,73,-99.99,,,0.07,weatherlink.com 1.10,2013-01-23 16:35:00,
2013-01-23 18:50:00,53.3,44.0,29.89,SW,220,5.0,-999.0,72,-99.99,,,0.07,weatherlink.com 1.10,2013-01-23 16:50:00,
2013-01-23 19:05:00,53.3,44.0,29.89,SW,220,3.0,-999.0,70,-99.99,,,0.07,weatherlink.com 1.10,2013-01-23 17:05:00,
2013-01-23 19:20:00,53.5,43.0,29.90,WSW,247,3.0,-999.0,67,-99.99,,,0.07,weatherlink.com 1.10,2013-01-23 17:20:00,
2013-01-23 19:35:00,53.6,42.0,29.90,SW,216,2.0,-999.0,65,-99.99,,,0.07,weatherlink.com 1.10,2013-01-23 17:35:00,
2013-01-23 19:50:00,54.1,41.0,29.90,SSW,212,2.0,-999.0,62,-99.99,,,0.07,weatherlink.com 1.10,2013-01-23 17:50:00,
2013-01-23 20:05:00,54.4,42.0,29.90,SW,219,2.0,-999.0,63,-99.99,,,0.07,weatherlink.com 1.10,2013-01-23 18:05:00,
2013-01-23 20:21:00,54.4,42.0,29.90,SW,234,1.0,-999.0,63,-99.99,,,0.07,weatherlink.com 1.10,2013-01-23 18:21:00,
2013-01-23 20:36:00,53.9,43.0,29.91,SSW,192,11.0,-999.0,67,-99.99,,,0.07,weatherlink.com 1.10,2013-01-23 18:36:00,
2013-01-23 20:51:00,53.5,44.0,29.92,SW,222,3.0,-999.0,69,-99.99,,,0.07,weatherlink.com 1.10,2013-01-23 18:51:00,
2013-01-23 21:06:00,53.2,44.0,29.93,SW,220,1.0,-999.0,71,-99.99,,,0.07,weatherlink.com 1.10,2013-01-23 19:06:00,
2013-01-23 21:21:00,52.9,44.0,29.93,SW,226,5.0,-999.0,73,-99.99,,,0.07,weatherlink.com 1.10,2013-01-23 19:21:00,
2013-01-23 21:36:00,52.9,44.0,29.93,WNW,285,3.0,-999.0,73,-99.99,,,0.07,weatherlink.com 1.10,2013-01-23 19:36:00,
2013-01-23 21:51:00,52.8,45.0,29.93,South,191,2.0,-999.0,74,-99.99,,,0.07,weatherlink.com 1.10,2013-01-23 19:51:00,
2013-01-23 22:06:00,52.6,45.0,29.94,WSW,254,2.0,-999.0,74,-99.99,,,0.07,weatherlink.com 1.10,2013-01-23 20:06:00,
2013-01-23 22:21:00,52.5,45.0,29.94,WSW,253,7.0,-999.0,75,-99.99,,,0.07,weatherlink.com 1.10,2013-01-23 20:21:00,
2013-01-23 22:36:00,52.2,45.0,29.95,SSW,200,4.0,-999.0,75,-99.99,,,0.07,weatherlink.com 1.10,2013-01-23 20:36:00,
2013-01-23 22:51:00,52.0,44.0,29.95,South,189,2.0,-999.0,75,-99.99,,,0.07,weatherlink.com 1.10,2013-01-23 20:51:00,
2013-01-23 23:06:00,52.0,44.0,29.95,SW,224,0.0,-999.0,75,-99.99,,,0.07,weatherlink.com 1.10,2013-01-23 21:06:00,
2013-01-23 23:21:00,51.9,45.0,29.95,SW,217,3.0,-999.0,76,-99.99,,,0.07,weatherlink.com 1.10,2013-01-23 21:21:00,
2013-01-23 23:36:00,51.6,44.0,29.95,SW,234,5.0,-999.0,76,-99.99,,,0.07,weatherlink.com 1.10,2013-01-23 21:36:00,
2013-01-23 23:52:00,51.4,44.0,29.95,SW,222,2.0,-999.0,77,-99.99,,,0.00,weatherlink.com 1.10,2013-01-23 21:52:00,